Regional Weather Roundup
Issued by NWS Burlington, VT

Current Version | Previous Version | Text Only | Print | Product List | Glossary On
Versions: 1 2 3 4 5 6 7 8 9 10 11 12 13 14 15 16 17 18 19 20 21 22 23 24 25 26 27 28 29 30 31 32 33 34 35 36 37 38 39 40 41 42 43 44 45 46 47 48 49 50
000
ASUS41 KBTV 212030
RWRBTV
VERMONT REGIONAL WEATHER ROUNDUP
NATIONAL WEATHER SERVICE BURLINGTON VT
400 PM EDT THU SEP 21 2017

NOTE: "FAIR" INDICATES FEW OR NO CLOUDS BELOW 12,000 FEET WITH NO
SIGNIFICANT WEATHER AND/OR OBSTRUCTIONS TO VISIBILITY.

* THESE REPORTS ARE NOT UNDER NWS QUALITY CONTROL AND/OR DO NOT
  REPORT WEATHER SUCH AS PRECIPITATION AND FOG.

VTZ001>019-212100-
_____VERMONT_____


CITY           SKY/WX    TMP DP  RH WIND       PRES   REMARKS
BURLINGTON     PTSUNNY   78  59  51 N12       30.07F
MONTPELIER     SUNNY     76  54  46 NE5       30.11
MORRISVILLE    SUNNY     77  46  33 N9        30.10S
ST. JOHNSBURY*   N/A     78  52  40 MISG      30.05F
LYNDONVILLE*   FAIR      77  48  36 NE6       30.11S
MIDDLEBURY*    FAIR      74  63  67 N8        30.07R
RUTLAND*       MOSUNNY   78  56  46 N13       30.06S
SPRINGFIELD    CLOUDY    77  55  46 VRB3      30.05F
HIGHGATE*      FAIR      80  50  35 N6        30.08S
NEWPORT*       FAIR      73  51  45 N12       30.11F
BENNINGTON     CLOUDY    78  63  59 N8        30.04F
SUTTON*          N/A     75 N/A N/A MISG        N/A
MT. MANSFIELD*   N/A     68 N/A N/A E5          N/A

_____LAKE CHAMPLAIN_____


CITY           SKY/WX    TMP DP  RH WIND       PRES   REMARKS
BURTON ISLAND*   N/A    N/A N/A N/A N1          N/A
COLCHESTER RF*   N/A     73  59  60 N14         N/A
DIAMOND ISL*     N/A     72  57  60 N18         N/A

$$

NYZ007-026>031-035-052-083-087-212100-
_____NORTHERN NEW YORK_____


CITY           SKY/WX    TMP DP  RH WIND       PRES   REMARKS
PLATTSBURGH    SUNNY     77  54  44 N8        30.08F
SARANAC LAKE   CLOUDY    75  48  38 E9        30.12S
MASSENA        SUNNY     78  53  41 NE8       30.11S
OGDENSBURG*    FAIR      79  59  49 N6        30.10S
POTSDAM*       SUNNY     77  57  50 NE9       30.10S
WATERTOWN      SUNNY     80  60  50 NE9       30.07F
FT DRUM        SUNNY     80  62  53 N9        30.08F
ALBANY         PTSUNNY   79  60  52 N12       30.04S
GLENS FALLS    CLOUDY    78  58  49 NE10      30.04S

$$
NHZ002-005-011-212100-
_____NEW HAMPSHIRE_____


CITY           SKY/WX    TMP DP  RH WIND       PRES   REMARKS
LEBANON        PTSUNNY   78  54  43 NE7       30.05S
KEENE          PTSUNNY   74  56  53 NE5       30.05S
MT WASHINGTON  PTSUNNY   50  27  40 NE30G37     N/A
PLYMOUTH       FAIR      73  52  46 CALM      30.07R
WHITEFIELD     CLOUDY    75  46  35 E9        30.10S

$$

_____REGIONAL QUEBEC LOCATIONS_____


CITY           SKY/WX    TMP DP  RH WIND       PRES   REMARKS
MONTREAL       MOSUNNY   79  54  41 NE7       30.10S
QUEBEC CITY    MOSUNNY   72  50  46 NE10      30.14F
SHERBROOKE     SUNNY     75  48  38 N8        30.10F

_____REGIONAL ONTARIO LOCATIONS_____


CITY           SKY/WX    TMP DP  RH WIND       PRES   REMARKS
OTTAWA         MOSUNNY   79  55  44 E7        30.12F

______KEY______
VSB  - VISIBILITY IN MILES
WCI  - WIND CHILL INDEX
HX   - HEAT INDEX
$$
NNNN



USA.gov is the U.S. government's official web portal to all federal, state and local government web resources and services.